www.pogodaiklimat.ru

Погода и климат >> Архив погоды >> Португалия >> Порталегра


ПОГОДА в Порталегре

  • Прогноз погоды в Порталегре
  • Монитор погоды в Порталегре

АРХИВ ПОГОДЫ в Порталегре

Время (UTC), дата Ветер
(напр.,м/с)
 
Видим.   Явления Облачность Т
(С)
Тd
(С)
f
(%)
Тe
(С)
Тes
(С)
Комфортность P
(гПа)
Po
(гПа)
Тmin
(С)
Tmax
(С)
R
(мм)
R24
(мм)
S
(см)
10 12.09 В 5 н/о н/о +23.4 +7.9 37 +24 +24 комфорт 1023.9 956.3
11 12.09 В 4 н/о н/о +25.3 +8.3 34 +26 +26 жарко 1023.3 956.2
12 12.09 В 4 н/о н/о +27.1 +8.6 31 +27 +27 жарко 1022.2 955.6
13 12.09 СВ 4 н/о н/о +27.4 +8.6 31 +27 +27 жарко 1021.5 955.1
14 12.09 В 5 н/о н/о +28.6 +8.5 28 +28 +28 жарко 1021.0 954.7
15 12.09 СВ 6 н/о н/о +28.5 +9.2 30 +28 +28 жарко 1020.3 954.1
16 12.09 В 4 н/о н/о +28.9 +9.2 29 +29 +29 жарко 1020.2 954.0
17 12.09 В 7 н/о н/о +28.0 +9.2 31 +28 +28 жарко 1020.2 953.9
18 12.09 ЮВ 5 н/о н/о +27.2 +9.2 32 +27 +27 жарко 1020.6 954.1 +29.6
19 12.09 ЮВ 6 н/о н/о +24.8 +10.2 40 +26 +26 жарко 1021.5 954.5
20 12.09 В 4 н/о н/о +23.9 +10.0 41 +25 +25 комфорт 1022.0 954.6
21 12.09 ЮВ 5 н/о н/о +23.4 +10.1 43 +25 +25 комфорт 1022.5 955.1
22 12.09 ЮВ 4 н/о н/о +21.5 +10.6 50 +23 +23 комфорт 1023.4 955.4
23 12.09 В 4 н/о н/о +21.7 +10.3 48 +23 +23 комфорт 1023.3 955.4
00 13.09 В 6 н/о н/о +22.1 +10.6 48 +24 +24 комфорт 1023.0 955.2
01 13.09 ЮВ 5 н/о н/о +21.5 +10.6 50 +23 +23 комфорт 1022.9 955.0
02 13.09 В 4 н/о н/о +20.8 +9.6 49 +23 +23 комфорт 1022.4 954.4
03 13.09 В 6 н/о н/о +20.8 +8.5 45 +22 +22 комфорт 1021.9 953.8
04 13.09 В 7 н/о н/о +21.0 +7.7 42 +22 +22 комфорт 1021.4 953.5
05 13.09 СВ 5 н/о н/о +20.1 +9.1 49 +21 +21 комфорт 1021.7 953.5
06 13.09 В 4 н/о н/о +20.3 +8.5 47 +22 +22 комфорт 1021.7 953.5 +19.6
07 13.09 В 6 н/о н/о +20.4 +5.9 39 +21 +21 комфорт 1021.7 953.6
08 13.09 В 4 н/о н/о +21.8 +5.7 35 +22 +22 комфорт 1021.4 953.6
09 13.09 В 5 н/о н/о +23.8 +3.8 27 +23 +23 комфорт 1021.1 953.7
10 13.09 ЮВ 4 н/о н/о +24.3 +6.9 33 +24 +24 комфорт 1020.8 953.6
11 13.09 В 4 н/о н/о +24.7 +7.1 32 +25 +25 комфорт 1020.6 953.4
12 13.09 ЮВ 6 н/о н/о +25.9 +8.8 34 +26 +26 жарко 1019.6 952.9
13 13.09 ЮВ 6 н/о н/о +23.7 +8.0 37 +24 +24 комфорт 1020.1 952.9
14 13.09 ЮВ 5 н/о н/о +24.2 +7.5 34 +24 +24 комфорт 1019.8 952.7
15 13.09 В 6 н/о н/о +23.4 +7.3 36 +24 +24 комфорт 1019.2 952.0
16 13.09 ЮВ 4 н/о н/о +23.7 +8.4 38 +24 +24 комфорт 1019.3 952.1
17 13.09 ЮВ 5 н/о н/о +21.4 +9.4 46 +23 +23 комфорт 1019.9 952.2
18 13.09 ЮВ 6 н/о н/о +21.1 +9.7 48 +22 +22 комфорт 1019.8 952.0 +27.9
19 13.09 В 3 н/о н/о +20.4 +9.8 51 +22 +22 комфорт 1020.1 952.1
20 13.09 СВ 4 н/о н/о +19.8 +10.9 56 +21 +21 комфорт 1020.9 952.7
21 13.09 В 2 н/о н/о +18.8 +10.8 60 +20 +20 1021.7 953.3
22 13.09 В 4 н/о н/о +18.8 +10.7 59 +19 +19 1021.6 953.2
23 13.09 ЮВ 4 н/о н/о +18.4 +11.5 64 +19 +19 1021.7 953.1
00 14.09 ЮВ 3 н/о н/о +18.4 +11.6 65 +19 +19 1021.6 953.1
01 14.09 В 5 н/о н/о +17.9 +11.7 67 +18 +18 1020.9 952.3
02 14.09 В 4 н/о н/о +17.7 +12.7 73 +17 +17 1020.4 951.8
03 14.09 СВ 6 н/о н/о +17.8 +13.0 73 +17 +17 1020.0 951.4
04 14.09 СВ 6 н/о н/о +17.7 +13.0 74 +17 +17 1019.5 950.9
05 14.09 В 7 н/о н/о +18.0 +13.6 75 +17 +17 1019.3 950.8
06 14.09 В 5 н/о н/о +18.0 +13.4 74 +18 +18 1019.7 951.1 +17.4
07 14.09 В 6 н/о н/о +18.4 +12.9 70 +18 +18 1019.8 951.4
08 14.09 В 5 н/о н/о +19.8 +12.8 64 +21 +21 комфорт 1020.0 951.9
09 14.09 В 6 н/о н/о +21.5 +12.3 56 +24 +24 комфорт 1019.6 951.8
10 14.09 ЮВ 5 н/о н/о +23.4 +12.4 50 +26 +26 жарко 1019.3 952.0
11 14.09 В 5 н/о н/о +24.4 +11.8 45 +26 +26 жарко 1018.8 951.8
12 14.09 В 4 н/о н/о +26.6 +11.4 39 +28 +28 жарко 1018.0 951.3
13 14.09 СВ 3 н/о н/о +24.2 +10.2 41 +25 +25 комфорт 1017.6 950.7
14 14.09 ЮВ 2 н/о н/о +26.1 +12.0 41 +27 +27 жарко 1016.6 950.0
15 14.09 ЮВ 3 н/о н/о +24.2 +11.4 45 +26 +26 жарко 1016.7 949.7
16 14.09 ЮВ 3 н/о н/о +26.0 +10.9 39 +27 +27 жарко 1016.4 949.8
17 14.09 В 4 н/о н/о +23.1 +11.7 49 +26 +26 жарко 1017.3 950.1
18 14.09 ЮВ 3 н/о н/о +22.5 +11.1 48 +25 +25 комфорт 1017.6 950.3 +27.3
19 14.09 В 4 н/о н/о +21.6 +9.9 47 +23 +23 комфорт 1018.2 950.6
20 14.09 СВ 5 н/о н/о +20.8 +11.2 54 +23 +23 комфорт 1018.8 951.0
21 14.09 В 4 н/о н/о +20.5 +11.9 58 +23 +23 комфорт 1019.2 951.3
22 14.09 В 5 н/о н/о +20.3 +12.3 60 +22 +22 комфорт 1019.3 951.3
23 14.09 В 3 н/о н/о +19.2 +12.9 67 +21 +21 комфорт 1019.6 951.4
00 15.09 ЮВ 3 н/о н/о +19.0 +13.0 68 +20 +20 1019.1 950.9
01 15.09 ЮВ 1 н/о н/о +18.6 +13.1 70 +20 +20 1019.2 950.8
02 15.09 СЗ 1 н/о н/о +18.3 +13.0 71 +20 +20 1019.0 950.6
03 15.09 СВ 2 н/о н/о +18.7 +12.6 68 +20 +20 1018.7 950.4
04 15.09 ЮВ 1 н/о н/о +17.6 +12.8 73 +19 +19 1018.6 950.1
05 15.09 В 1 н/о н/о +17.9 +12.7 72 +19 +19 1018.6 950.2
06 15.09 В 2 н/о н/о +18.2 +13.0 72 +19 +19 1018.5 950.1 +17.2
07 15.09 В 2 н/о н/о +18.3 +13.2 72 +19 +19 1018.7 950.3
08 15.09 С 2 н/о н/о +19.3 +13.6 70 +21 +21 комфорт 1018.9 950.7
09 15.09 С 2 н/о н/о +21.0 +13.6 63 +24 +24 комфорт 1018.4 950.7
10 15.09 СЗ 2 н/о н/о +22.2 +12.9 56 +25 +25 комфорт 1018.6 951.1
11 15.09 ЮЗ 2 н/о н/о +23.2 +13.6 55 +27 +27 душно 1018.0 950.8
12 15.09 СЗ 3 н/о н/о +23.6 +12.6 50 +26 +26 жарко 1017.7 950.4
13 15.09 СЗ 2 н/о н/о +23.7 +12.5 49 +26 +26 жарко 1017.1 950.1
14 15.09 В 3 н/о н/о +23.5 +12.8 51 +26 +26 жарко 1017.0 949.9
15 15.09 СВ 1 н/о н/о +23.7 +12.8 50 +26 +26 жарко 1016.5 949.5
16 15.09 С 1 н/о н/о +24.3 +12.0 46 +26 +26 жарко 1016.1 949.2
17 15.09 СЗ 2 н/о н/о +24.9 +11.4 43 +26 +26 жарко 1015.7 949.0
18 15.09 С 2 н/о н/о +23.8 +12.2 48 +26 +26 жарко 1016.1 949.1 +25.4
19 15.09 С 3 н/о н/о +22.2 +12.4 54 +25 +25 комфорт 1016.6 949.3
20 15.09 СВ 4 н/о н/о +22.3 +12.2 53 +25 +25 комфорт 1016.9 949.6
21 15.09 СВ 4 н/о н/о +22.4 +12.0 52 +25 +25 комфорт 1017.4 950.0
22 15.09 СВ 4 н/о н/о +22.2 +11.0 49 +24 +24 комфорт 1017.6 950.2
23 15.09 СВ 4 н/о н/о +22.3 +10.6 47 +24 +24 комфорт 1017.5 950.1
00 16.09 СВ 3 н/о н/о +22.6 +10.5 46 +24 +24 комфорт 1017.5 950.1
01 16.09 СВ 2 н/о н/о +22.4 +10.9 48 +24 +24 комфорт 1017.4 950.0
02 16.09 штиль 0 н/о н/о +22.1 +11.1 50 +24 +24 комфорт 1017.1 949.7
03 16.09 штиль 0 н/о н/о +20.9 +11.1 53 +23 +23 комфорт 1017.0 949.4
04 16.09 С 1 н/о н/о +20.6 +10.9 54 +24 +24 комфорт 1017.0 949.2
05 16.09 ЮВ 1 н/о н/о +20.1 +10.9 55 +23 +23 комфорт 1016.9 949.1
06 16.09 СЗ 2 н/о н/о +19.6 +11.7 60 +22 +22 комфорт 1017.2 949.3 +19.5
07 16.09 СЗ 2 н/о н/о +20.6 +11.9 57 +23 +23 комфорт 1017.5 949.7
08 16.09 СЗ 1 н/о н/о +21.6 +12.7 57 +24 +24 комфорт 1017.6 950.0
09 16.09 СЗ 2 н/о н/о +22.4 +13.0 55 +25 +25 комфорт 1018.0 950.6
10 16.09 З 2 н/о н/о +24.0 +13.1 51 +26 +26 жарко 1018.0 950.8
11 16.09 З 2 н/о н/о +25.3 +12.9 46 +27 +27 жарко 1017.5 950.6
12 16.09 ЮЗ 3 н/о н/о +26.1 +12.7 43 +28 +28 жарко 1016.8 950.3
13 16.09 ЮЗ 2 н/о н/о +27.1 +12.2 40 +29 +29 жарко 1016.0 949.8
14 16.09 ЮЗ 4 н/о н/о +26.7 +11.4 38 +28 +28 жарко 1015.6 949.3
15 16.09 ЮЗ 3 н/о н/о +26.5 +11.4 39 +28 +28 жарко 1015.2 948.9
16 16.09 ЮЗ 3 н/о н/о +26.3 +11.7 40 +28 +28 жарко 1015.1 948.6
17 16.09 Ю 1 н/о н/о +25.7 +11.1 40 +27 +27 жарко 1014.9 948.4
18 16.09 З 4 н/о н/о +25.8 +8.4 33 +26 +26 жарко 1014.9 948.5 +27.9
19 16.09 СЗ 3 н/о н/о +23.8 +8.5 38 +24 +24 комфорт 1015.7 948.8
20 16.09 СЗ 4 н/о н/о +22.4 +11.4 50 +25 +25 комфорт 1016.7 949.4
21 16.09 СЗ 4 н/о н/о +20.9 +12.4 58 +23 +23 комфорт 1017.3 949.7
22 16.09 СЗ 5 н/о н/о +20.5 +11.6 57 +22 +22 комфорт 1017.3 949.5
23 16.09 СЗ 4 н/о н/о +21.0 +10.7 52 +23 +23 комфорт 1017.1 949.4
00 17.09 СЗ 3 н/о н/о +20.9 +10.0 50 +23 +23 комфорт 1016.9 949.2
01 17.09 СВ 4 н/о н/о +21.4 +10.1 48 +23 +23 комфорт 1016.2 948.6
02 17.09 СВ 3 н/о н/о +22.1 +9.3 44 +24 +24 комфорт 1015.6 948.3
03 17.09 ЮВ 1 н/о н/о +21.7 +9.0 44 +23 +23 комфорт 1015.3 948.0
04 17.09 ЮВ 1 н/о н/о +21.4 +9.1 45 +23 +23 комфорт 1015.3 947.8
05 17.09 ЮВ 3 н/о н/о +21.2 +9.4 47 +23 +23 комфорт 1015.2 947.7
06 17.09 ЮВ 3 н/о н/о +21.0 +9.8 49 +23 +23 комфорт 1015.2 947.7 +20.0
07 17.09 ЮВ 2 н/о н/о +20.3 +10.1 52 +22 +22 комфорт 1015.8 948.1
08 17.09 ЮВ 2 н/о н/о +20.6 +10.6 53 +23 +23 комфорт 1015.9 948.2
09 17.09 ЮВ 2 н/о н/о +23.6 +11.4 46 +25 +25 комфорт 1015.6 948.5
10 17.09 Ю 1 н/о н/о +26.2 +12.5 43 +28 +28 жарко 1015.1 948.6
11 17.09 ЮВ 3 н/о н/о +26.9 +11.6 39 +28 +28 жарко 1014.6 948.4
12 17.09 ЮВ 2 н/о н/о +26.0 +12.3 43 +28 +28 жарко 1014.6 948.2
13 17.09 Ю 2 н/о н/о +26.3 +12.7 43 +28 +28 жарко 1013.9 947.6
14 17.09 ЮЗ 3 н/о н/о +26.3 +12.7 43 +28 +28 жарко 1013.5 947.2
15 17.09 З 3 н/о н/о +25.0 +12.7 46 +27 +27 жарко 1013.3 946.7
16 17.09 З 2 н/о н/о +25.3 +12.6 45 +27 +27 жарко 1012.8 946.3
17 17.09 СЗ 2 н/о н/о +26.4 +12.3 42 +28 +28 жарко 1012.3 946.1
18 17.09 З 2 н/о н/о +25.7 +11.9 42 +27 +27 жарко 1012.3 946.0 +28.4
19 17.09 СЗ 3 н/о н/о +23.4 +11.1 46 +26 +26 жарко 1013.1 946.2
20 17.09 СВ 2 н/о н/о +23.5 +11.0 45 +25 +25 комфорт 1013.4 946.5
21 17.09 СВ 3 н/о н/о +22.8 +11.7 50 +25 +25 комфорт 1014.1 947.0
22 17.09 ЮВ 2 н/о н/о +20.5 +11.3 56 +23 +23 комфорт 1015.0 947.4
23 17.09 ЮВ 4 н/о н/о +19.3 +11.8 62 +20 +20 1015.1 947.2
00 18.09 ЮВ 3 н/о н/о +19.9 +11.0 56 +22 +22 комфорт 1014.4 946.7
01 18.09 В 1 н/о н/о +18.4 +11.5 64 +20 +20 1014.9 946.8
02 18.09 В 2 н/о н/о +18.3 +11.5 65 +19 +19 1014.7 946.5
03 18.09 ЮВ 2 н/о н/о +18.9 +11.5 62 +20 +20 1014.2 946.3
04 18.09 ЮВ 1 н/о н/о +17.5 +11.7 69 +19 +19 1014.4 946.1
05 18.09 ЮВ 1 н/о н/о +16.6 +12.3 76 +17 +17 1014.8 946.4
06 18.09 ЮВ 1 н/о н/о +16.0 +12.3 79 +17 +17 1015.6 946.9 +15.9
07 18.09 ЮВ 2 н/о н/о +16.7 +12.5 76 +17 +17 1016.0 947.4
08 18.09 ЮВ 1 н/о н/о +19.1 +13.0 68 +21 +21 комфорт 1015.8 947.8
09 18.09 Ю 1 н/о н/о +19.9 +13.4 66 +23 +23 комфорт 1016.0 948.2
10 18.09 ЮЗ 2 н/о н/о +21.1 +13.4 61 +23 +23 комфорт 1016.1 948.5
11 18.09 ЮЗ 2 н/о н/о +23.0 +13.3 54 +26 +26 жарко 1015.7 948.6
12 18.09 Ю 2 н/о н/о +25.8 +13.3 46 +28 +28 жарко 1015.1 948.5
13 18.09 З 3 н/о н/о +25.5 +12.4 44 +27 +27 жарко 1014.7 948.2
14 18.09 ЮЗ 3 н/о н/о +27.0 +11.4 38 +28 +28 жарко 1014.0 947.8
15 18.09 ЮЗ 3 н/о н/о +27.2 +10.9 36 +28 +28 жарко 1013.7 947.5
16 18.09 Ю 2 н/о н/о +27.3 +8.7 31 +27 +27 жарко 1013.3 947.3
17 18.09 З 2 н/о н/о +26.4 +9.8 35 +27 +27 жарко 1013.4 947.2
18 18.09 З 3 н/о н/о +25.0 +10.1 39 +26 +26 жарко 1013.9 947.3 +28.5
19 18.09 З 2 н/о н/о +23.6 +9.9 42 +25 +25 комфорт 1014.5 947.6
20 18.09 З 3 н/о н/о +21.7 +11.2 51 +24 +24 комфорт 1015.6 948.2
21 18.09 СЗ 4 н/о н/о +19.3 +13.8 70 +21 +21 комфорт 1016.5 948.6
22 18.09 З 2 н/о н/о +17.7 +14.0 79 +18 +18 1017.1 948.8
23 18.09 З 2 н/о н/о +16.3 +13.8 85 +16 +16 1017.4 948.7
00 19.09 СЗ 3 н/о н/о +16.8 +12.9 78 +17 +17 1017.3 948.7
01 19.09 СЗ 4 н/о н/о +17.9 +13.1 73 +18 +18 1016.8 948.5
02 19.09 СЗ 3 н/о н/о +17.9 +12.9 73 +18 +18 1016.4 948.1
03 19.09 СЗ 4 н/о н/о +17.6 +12.8 73 +17 +17 1016.1 947.8
04 19.09 СЗ 3 н/о н/о +17.9 +12.8 72 +18 +18 1015.8 947.5
05 19.09 СЗ 3 н/о н/о +18.2 +12.6 70 +19 +19 1015.8 947.6
06 19.09 СЗ 2 н/о н/о +16.1 +12.3 78 +16 +16 1016.0 947.7 +15.7
07 19.09 СЗ 2 н/о н/о +17.8 +11.6 67 +18 +18 1016.3 948.1
08 19.09 С 2 н/о н/о +18.7 +12.6 68 +20 +20 1016.7 948.4
09 19.09 СЗ 1 н/о н/о +20.3 +11.8 58 +23 +23 комфорт 1016.4 948.6

 

Местоположение метеостанции Порталегра (Португалия): широта 39.28 долгота -7.42 высота над уровнем моря 590 м.

В архиве по умолчанию представлена погода в Порталегре за последнюю неделю. Архивные данные за месяц целиком и за предыдущие месяцы, начиная с января 2011 года, Вы можете получить, выбрав интересующий диапазон дат из раскрывающегося списка и нажав кнопку "Ввод!".


*Определитесь, кто Вы:
робот инопланетянин человек

Внимание! Время в таблицах - всемирное. Для получения местного времени необходимо прибавить поправку, которая равна 0 ч.

Смотрите также архив погоды в соседних городах и на ближайших метеорологических станциях:

Погода в Валенсия-де-Алькантаре (Испания) (21 км)
Погода в Кастело Бранко (Португалия) (61 км)
Погода в Бадахосе (Испания) (68 км)
Погода в Эворе (Португалия) (93 км)
Погода в Касересе (Испания) (96 км)
Погода в Мериде (Испания) (98 км)
Погода в Кориа (Испания) (109 км)
Погода в Херес-де-лос-Кабалье (Испания) (123 км)
Погода в Обсерватории Penhas Douradas (Португалия) (127 км)
Погода в Коимбре (Португалия) (132 км)

Пояснения к столбцам:

Ветер - указаны скорость ветра в м/с - средняя за 10 мин, порывы в срок и между сроками (в фигурных скобках) и направление, откуда дует ветер: С - северный, СВ - северо-восточный, В - восточный, ЮВ - юго-восточный, Ю - южный, ЮЗ - юго-западный, З - западный, СЗ - северо-западный.
Видимость - горизонтальная дальность видимости в метрах или километрах. При видимости от 1 до 10 км при отсутствии осадков обычно наблюдается дымка, при ухудшении видимости до 1 км и менее - туман. В сухую погоду видимость может ухудшаться дымом, пылью или мглою.
Явления - указаны атмосферные явления, наблюдавшиеся в срок или в последний час перед сроком; фигурными скобками обозначены явления, наблюдавшиеся между сроками (за 1-3 часа до срока); квадратными скобками обозначены град или гололедные отложения с указанием их диаметра в мм.
Облачность - указаны через наклонную черту общая и нижняя облачность в баллах и высота нижней границы облаков в метрах; квадратными скобками обозначены формы облаков: Ci - перистые, Cs - перисто-слоистые, Cc - перисто-кучевые, Ac - высококучевые, As - высокослоистые, Sc - слоисто-кучевые, Ns - слоисто-дождевые, Cu - кучевые, Cb - кучево-дождевые. Подробнее классификацию облаков см. в Атласе облаков (PDF).
T - Температура воздуха - температура, измеренная на высоте 2 м над землей.
Td - Температура точки росы - температура, при понижении до которой содержащийся в воздухе водяной пар достигнет насыщения.
f - Относительная влажность воздуха - влажноcть воздуха, измеренная на высоте 2 м над землей.
Te - Эффективная температура - температура, которую ощущает одетый по сезону человек в тени. Характеристика душности погоды. При расчете учитывается влияние влажности воздуха и скорости ветра на теплоощущения человека.
Tes - Эффективная температура на солнце - температура, которую ощущает человек, с поправкой на солнечный нагрев. Характеристика знойности погоды. Зависит от высоты солнца над горизонтом, облачности и скорости ветра. Ночью, в пасмурную погоду, а также при ветре 12 м/с и более поправка равна нулю.
P - Атмосферное давление - приведенное к уровню моря атмосферное давление.
Po - Атмосферное давление - измеренное на уровне метеостанции атмосферное давление.
Tmin - Минимальная температура - минимум температуры воздуха на высоте 2 м над землей.
Tmax - Максимальная температура - максимум температуры воздуха на высоте 2 м над землей.
R - Количество осадков - Количество выпавших осадков за период времени, мм. При наведении курсора мыши на число - период времени, за который выпало указанное количество осадков.
R24 - Количество осадков - Количество выпавших осадков за 24 часа, мм.
S - Снежный покров - Высота снежного покрова, см. При наведении курсора мыши на число - состояние снежного покрова и степень покрытия местности в баллах.